Weather in Kola

Russia / Murmansk Oblast     68°52′41″N   33°01′30″E
temp.,
°C
wind,
m/s
gust,
m/s
humid.,
%
clouds,
%
prec.,
mm/h
press.,
hPa
HPBL,
m
25 february, thu
thu2500:00−9ssw61393100 0.1 1004384
03:00−9ssw61489100 0.2 1003411
06:00−10ssw61293100 0.2 1001396
09:00−11ssw51192100 0.4 1000356
12:00−9ssw51091100 0.1 999333
15:00−8s6139198 0.1 998329
18:00−7ssw61291100 0.0 995363
21:00−8ssw51092100 0.0 994240
26 february, fri
fri2600:00−8ssw4793100 0.0 993188
03:00−5ssw4795100 0.4 993248
06:00−4ssw2497100 0.3 992121
09:00−3ssw2497100 0.4 993140
12:00−2ssw249699 0.1 993182
15:000wsw369588 0.1 995383
18:00−4w229087 0.0 99628
21:00−6w119184 0.0 99921
27 february, sat
sat2700:00−3wnw2129889 0.9 1002477
03:00−1nnw6138794 1.4 1006867
06:00−1nw61190100 0.1 1008651
09:00−4nw41194100 0.3 1010334
12:00−3wnw6128798 0.1 1012540
15:00−3wnw6129090 0.1 1013492
18:00−5wnw6129163 0.0 1013271
21:00−7w499031 0.0 1012175
28 february, sun
sun2800:00−9wsw33910 0.0 101138
03:00−10sw339123 0.0 101030
06:00−9ssw339188 0.0 100843
09:00−7ssw389594 0.3 1008286
12:00−5sw4995100 0.2 1008344
15:00−2sw4109698 0.6 1007321
18:00+2wnw61497100 0.3 1007444
21:00+1w71310099 0.4 1007396
1 march, mon
mon100:00+1wsw71399100 0.3 1006353
03:00+1sw71587100 0.4 1003430
06:00+1sw81784100 0.0 1000628
09:00+1wnw71399100 0.4 1000608
12:00+1w6148762 0.0 1000564
15:00+1wsw6138831 0.0 999486
18:00−1wsw4118964 0.0 999339
21:00−2w6138763 0.0 999330